sat.trackr.live / text

‹ back to catalog

AE5RC

NORAD 66677 · 2025-276M

PAYLOAD ACTIVE UNKNOWN

§ Identity

Operator
Country
JPN
Launch date
2025-11-28
Launch site
AFWTR
Launch vehicle
Mass (kg)
RCS (m²)

External: N2YO · Heavens-Above · Gunter

§ Orbital elements

Epoch: 2026-05-25T03:29:13.119072Z

Period
94.60 min
Inclination
97.4184°
Eccentricity
0.0006864
Mean motion
15.22205517 rev/d
Perigee alt
494.5 km
Apogee alt
503.9 km
Semi-major
6,877.3 km
B*
4.7598e-4
RAAN
219.3573°
Arg perigee
97.9917°
Mean anomaly
262.2098°
Rev number
2,694

§ Raw data

AE5RC1 66677U 25276M   26145.14529073  .00010878  00000+0  47598-3 0  99922 66677  97.4184 219.3573 0006864  97.9917 262.2098 15.22205517 26943

JSON: /api/v1/satellites/66677 · /tle

For live sub-satellite position, see the globe view (requires WebGL).

§ Visibility from observer

Set your observer location to see the next 7 days of passes ≥ 10°. The values pass through the URL so the page stays shareable.

No JS? Fill the form by hand. The geolocation button needs JavaScript.